Home   Weather   Perth   Past weeks

Flag for Australia Past Weather in Perth, Western Australia, Australia — Yesterday and Last 2 Weeks

Now
61 °F

Passing clouds.


Feels Like: 61 °F
Forecast: 56 / 74 °F
Wind: 9 mph from South

Location: Belmont Perth Airport

Current Time: Dec 6, 2016 at 12:42:45 am

Latest Report: Dec 6, 2016 at 12:00 am


Visibility: N/A

Pressure: 30.01 "Hg

Humidity: 77%

Dew Point: 54 °F

Location of PerthLocation

Past Weather in Perth — Graph

°F

Perth Temperature Yesterday

Maximum temperature yesterday: 75 °F (at 12:00 pm)
Minimum temperature yesterday: 54 °F (at 3:30 am)
Average temperature yesterday: 66 °F

High & Low Weather Summary for the Past Weeks

 TemperatureHumidityPressure
High99 °F (Nov 26, 1:30 pm)100% (Nov 28, 1:30 am)30.15 "Hg (Nov 28, 1:30 am)
Low48 °F (Nov 21, 3:30 am)8% (Nov 26, 1:30 pm)29.74 "Hg (Dec 3, 1:00 am)
Average71 °F49%29.95 "Hg
* Reported Nov 20 11:00 pm — Dec 5 11:00 pm, Perth, Weather by CustomWeather, © 2016

Note: Actual official high and low records may vary slightly from our data, if they occured in-between our weather recording intervals... More about our weather records

Advertising

Perth Weather History for the Previous 24 Hours

Scroll right to see more
 ConditionsComfort  
Time TempWeatherWind HumidityBarometerVisibility
11:00 pm
Mon, Dec 5
61 °FPassing clouds.9 mph77%30.01 "HgN/A
10:00 pm63 °FPassing clouds.12 mph73%30.01 "HgN/A
9:30 pm64 °FPassing clouds.14 mph64%30.01 "HgN/A
9:00 pm64 °FPassing clouds.15 mph64%30.01 "HgN/A
8:30 pm64 °FPassing clouds.14 mph64%30.01 "HgN/A
8:00 pm66 °FPassing clouds.17 mph56%30.01 "HgN/A
7:30 pm66 °FPassing clouds.20 mph56%30.01 "HgN/A
7:00 pm66 °FPassing clouds.17 mph56%30.01 "HgN/A
6:30 pm68 °FPassing clouds.21 mph53%29.98 "HgN/A
6:00 pm70 °FPassing clouds.20 mph46%29.98 "HgN/A
5:30 pm70 °FPassing clouds.18 mph46%29.95 "HgN/A
5:00 pm72 °FSunny.20 mph44%29.95 "Hg10 mi
4:30 pm72 °FSunny.21 mph44%29.95 "Hg10 mi
4:00 pm72 °FSunny.22 mph41%29.95 "Hg10 mi
3:30 pm73 °FSunny.20 mph38%29.95 "Hg10 mi
3:00 pm73 °FSunny.22 mph36%29.92 "Hg10 mi
2:00 pm75 °FSunny.21 mph29%29.92 "Hg10 mi
1:30 pm75 °FSunny.22 mph29%29.92 "Hg10 mi
1:00 pm75 °FSunny.20 mph31%29.92 "Hg10 mi
12:00 pm75 °FPassing clouds.14 mph29%29.92 "HgN/A
11:30 am73 °FPassing clouds.10 mph36%29.95 "HgN/A
11:00 am72 °FPassing clouds.7 mph38%29.95 "HgN/A
10:30 am72 °FPassing clouds.13 mph41%29.95 "HgN/A
10:00 am70 °FPassing clouds.6 mph40%29.95 "HgN/A
9:30 am68 °FPassing clouds.10 mph46%29.98 "HgN/A
9:00 am66 °FPassing clouds.9 mph46%29.98 "HgN/A
8:30 am66 °FPassing clouds.12 mph49%29.98 "HgN/A
8:00 am64 °FPassing clouds.14 mph52%29.98 "HgN/A
7:30 am61 °FPassing clouds.15 mph55%29.98 "HgN/A
7:00 am59 °FScattered clouds.15 mph59%30.01 "HgN/A
6:30 am57 °FScattered clouds.15 mph63%30.01 "HgN/A
6:00 am57 °FScattered clouds.12 mph63%29.98 "HgN/A
5:00 am54 °FClear.9 mph72%29.95 "Hg10 mi
4:00 am54 °FClear.12 mph77%29.95 "Hg10 mi
3:30 am54 °FClear.14 mph77%29.95 "Hg10 mi
3:00 am55 °FClear.13 mph72%29.95 "Hg10 mi
2:00 am55 °FClear.15 mph72%29.92 "Hg10 mi
1:00 am57 °FClear.10 mph67%29.92 "Hg10 mi
12:00 am61 °FClear.14 mph59%29.92 "Hg10 mi
Weather by CustomWeather, © 2016

See weather overviewHow to use our weather pages